GEC8264 SBKP-SUMU

Flight info

Callsign GEC8264
Flight time 2h 2m
Altitude 32000
Route ASETA UL301 UKLEN UN741 ISNIL UM792 TELAK
Aircraft B77L/H-SDE2E3FGHIJ1J3J4J5M1P2RWXYZ/LB1D1

Departure

Time 2026-04-29 13:48
Airport Viracopos International Airport (SBKP)

Arrival

Time 2026-04-29 15:50
Airport Carrasco General Cesáreo L. Berisso International Airport (SUMU)
Time Latitude Longitude Altitude Speed Heading
2026-04-29 13:22 -23.00548 -47.14363 2153 ft 0 kts 218°
2026-04-29 13:40 -23.00542 -47.14358 2162 ft 4 kts 218°
2026-04-29 13:40 -23.00521 -47.14339 2153 ft 4 kts 218°
2026-04-29 13:40 -23.00500 -47.14321 2155 ft 4 kts 218°
2026-04-29 13:41 -23.00484 -47.14302 2155 ft 4 kts 263°
2026-04-29 13:41 -23.00490 -47.14277 2153 ft 4 kts 306°
2026-04-29 13:41 -23.00494 -47.14270 2162 ft 1 kts 308°
2026-04-29 13:43 -23.00489 -47.14277 2162 ft 4 kts 308°
2026-04-29 13:43 -23.00458 -47.14320 2153 ft 10 kts 308°
2026-04-29 13:43 -23.00411 -47.14385 2154 ft 11 kts 308°
2026-04-29 13:44 -23.00363 -47.14452 2156 ft 11 kts 308°
2026-04-29 13:44 -23.00314 -47.14519 2154 ft 11 kts 308°
2026-04-29 13:44 -23.00266 -47.14585 2154 ft 11 kts 308°
2026-04-29 13:44 -23.00219 -47.14653 2153 ft 11 kts 306°
2026-04-29 13:45 -23.00172 -47.14719 2155 ft 11 kts 309°
2026-04-29 13:45 -23.00118 -47.14782 2157 ft 11 kts 326°
2026-04-29 13:45 -23.00043 -47.14804 2162 ft 11 kts 354°
2026-04-29 13:45 -22.99968 -47.14793 2159 ft 11 kts 24°
2026-04-29 13:46 -22.99911 -47.14736 2153 ft 11 kts 56°
2026-04-29 13:46 -22.99892 -47.14656 2154 ft 11 kts 98°
2026-04-29 13:46 -22.99916 -47.14603 2158 ft 0 kts 124°
2026-04-29 13:46 -22.99950 -47.14552 2154 ft 21 kts 126°
2026-04-29 13:47 -23.00145 -47.14280 2153 ft 79 kts 128°
2026-04-29 13:47 -23.00621 -47.13612 2153 ft 143 kts 127°
2026-04-29 13:47 -23.01346 -47.12601 2162 ft 193 kts 128°
2026-04-29 13:47 -23.02192 -47.11424 2609 ft 199 kts 128°
2026-04-29 13:48 -23.03066 -47.10256 3213 ft 199 kts 134°
2026-04-29 13:48 -23.04259 -47.09541 3672 ft 201 kts 178°
2026-04-29 13:48 -23.05621 -47.09941 3899 ft 214 kts 214°
2026-04-29 13:48 -23.06877 -47.10922 4109 ft 233 kts 214°
2026-04-29 13:49 -23.08295 -47.11944 4391 ft 254 kts 212°
2026-04-29 13:49 -23.09778 -47.13048 4872 ft 263 kts 223°
2026-04-29 13:49 -23.10775 -47.14719 5395 ft 270 kts 257°
2026-04-29 13:49 -23.10960 -47.16745 6027 ft 275 kts 270°
2026-04-29 13:50 -23.11010 -47.18853 6631 ft 280 kts 270°
2026-04-29 13:50 -23.11058 -47.20966 7444 ft 280 kts 270°
2026-04-29 13:50 -23.11106 -47.23086 8164 ft 282 kts 270°
2026-04-29 13:50 -23.11153 -47.25220 8864 ft 284 kts 270°
2026-04-29 13:51 -23.11200 -47.27378 9512 ft 287 kts 270°
2026-04-29 13:51 -23.11254 -47.29562 10163 ft 291 kts 270°
2026-04-29 13:51 -23.11308 -47.31792 10584 ft 304 kts 270°
2026-04-29 13:51 -23.11364 -47.34168 10737 ft 325 kts 270°
2026-04-29 13:52 -23.11425 -47.36708 10891 ft 347 kts 270°
2026-04-29 13:52 -23.11492 -47.39400 11069 ft 366 kts 269°
2026-04-29 13:52 -23.11561 -47.42207 11455 ft 377 kts 269°
2026-04-29 13:52 -23.11631 -47.45086 12005 ft 384 kts 269°
2026-04-29 13:53 -23.11701 -47.48001 12654 ft 388 kts 269°
2026-04-29 13:53 -23.11772 -47.50930 13408 ft 388 kts 270°
2026-04-29 13:53 -23.11843 -47.53867 14136 ft 389 kts 270°
2026-04-29 13:53 -23.11912 -47.56811 14828 ft 391 kts 270°
2026-04-29 13:54 -23.11982 -47.59777 15455 ft 394 kts 270°
2026-04-29 13:54 -23.12051 -47.62723 16087 ft 396 kts 270°
2026-04-29 13:54 -23.12121 -47.65762 16712 ft 399 kts 270°
2026-04-29 13:54 -23.12190 -47.68738 17347 ft 400 kts 271°
2026-04-29 13:55 -23.12259 -47.71772 17934 ft 403 kts 271°
2026-04-29 13:55 -23.12329 -47.74865 18522 ft 405 kts 271°
2026-04-29 13:55 -23.12398 -47.77888 19107 ft 407 kts 271°
2026-04-29 13:55 -23.12466 -47.80969 19660 ft 409 kts 271°
2026-04-29 13:56 -23.12675 -47.84052 20041 ft 414 kts 261°
2026-04-29 13:56 -23.13674 -47.87029 20378 ft 427 kts 244°
2026-04-29 13:56 -23.15368 -47.89693 20854 ft 430 kts 237°
2026-04-29 13:56 -23.17159 -47.92312 21306 ft 433 kts 238°
2026-04-29 13:57 -23.18945 -47.94958 21789 ft 435 kts 238°
2026-04-29 13:57 -23.20726 -47.97628 22269 ft 437 kts 238°
2026-04-29 13:57 -23.22504 -48.00321 22741 ft 440 kts 239°
2026-04-29 13:57 -23.23707 -48.02148 23073 ft 440 kts 239°
2026-04-29 13:58 -23.26073 -48.05749 23655 ft 444 kts 239°
2026-04-29 13:58 -23.27829 -48.08508 24030 ft 442 kts 244°
2026-04-29 13:58 -23.29006 -48.11550 24291 ft 435 kts 261°
2026-04-29 13:58 -23.29424 -48.14775 24554 ft 432 kts 266°
2026-04-29 13:59 -23.29823 -48.18039 24842 ft 438 kts 265°
2026-04-29 13:59 -23.30283 -48.21317 25345 ft 437 kts 264°
2026-04-29 13:59 -23.30763 -48.24584 25836 ft 438 kts 264°
2026-04-29 13:59 -23.31247 -48.27867 26153 ft 442 kts 264°
2026-04-29 14:00 -23.31731 -48.31189 26456 ft 446 kts 264°
2026-04-29 14:00 -23.32213 -48.34525 26853 ft 447 kts 264°
2026-04-29 14:00 -23.32866 -48.37827 27117 ft 453 kts 255°
2026-04-29 14:00 -23.34319 -48.40925 27348 ft 468 kts 240°
2026-04-29 14:01 -23.36417 -48.43660 27753 ft 477 kts 229°
2026-04-29 14:01 -23.39068 -48.45887 28109 ft 485 kts 219°
2026-04-29 14:01 -23.41916 -48.47878 28389 ft 489 kts 218°
2026-04-29 14:01 -23.44805 -48.49861 28683 ft 492 kts 218°
2026-04-29 14:02 -23.47701 -48.51855 28992 ft 494 kts 218°
2026-04-29 14:02 -23.50603 -48.53874 29302 ft 496 kts 218°
2026-04-29 14:02 -23.53502 -48.55916 29631 ft 497 kts 219°
2026-04-29 14:02 -23.56401 -48.57978 29947 ft 498 kts 219°
2026-04-29 14:03 -23.59300 -48.60050 30285 ft 499 kts 219°
2026-04-29 14:03 -23.62197 -48.62128 30739 ft 497 kts 219°
2026-04-29 14:03 -23.65072 -48.64191 31285 ft 492 kts 219°
2026-04-29 14:03 -23.67883 -48.66208 31819 ft 489 kts 219°
2026-04-29 14:04 -23.70713 -48.68240 32162 ft 486 kts 219°
2026-04-29 14:04 -23.73544 -48.70276 32127 ft 487 kts 219°
2026-04-29 14:04 -23.79200 -48.74346 32130 ft 487 kts 219°
2026-04-29 14:05 -23.84856 -48.78420 32131 ft 487 kts 219°
2026-04-29 14:05 -23.90508 -48.82493 32139 ft 487 kts 219°
2026-04-29 14:06 -23.95202 -48.85877 32138 ft 486 kts 219°
2026-04-29 14:06 -24.00850 -48.89955 32143 ft 486 kts 219°
2026-04-29 14:07 -24.06488 -48.94029 32160 ft 485 kts 220°
2026-04-29 14:07 -24.12115 -48.98099 32149 ft 483 kts 220°
2026-04-29 14:08 -24.17720 -49.02157 32145 ft 483 kts 220°
2026-04-29 14:08 -24.23320 -49.06213 32161 ft 482 kts 220°
2026-04-29 14:09 -24.28913 -49.10279 32142 ft 483 kts 220°
2026-04-29 14:09 -24.34509 -49.14345 32163 ft 483 kts 220°
2026-04-29 14:10 -24.40094 -49.18407 32158 ft 483 kts 221°
2026-04-29 14:10 -24.45687 -49.22478 32182 ft 482 kts 221°
2026-04-29 14:11 -24.51276 -49.26549 32201 ft 482 kts 221°
2026-04-29 14:11 -24.56869 -49.30633 32187 ft 483 kts 221°
2026-04-29 14:12 -24.62469 -49.34726 32187 ft 483 kts 221°
2026-04-29 14:12 -24.68067 -49.38821 32187 ft 484 kts 221°
2026-04-29 14:13 -24.73565 -49.43042 32189 ft 481 kts 223°
2026-04-29 14:13 -24.78998 -49.47340 32197 ft 481 kts 223°
2026-04-29 14:14 -24.84399 -49.51592 32195 ft 480 kts 223°
2026-04-29 14:14 -24.89844 -49.55858 32186 ft 480 kts 223°
2026-04-29 14:15 -24.95282 -49.60120 32192 ft 479 kts 223°
2026-04-29 14:15 -25.00709 -49.64382 32215 ft 479 kts 223°
2026-04-29 14:16 -25.06145 -49.68653 32214 ft 480 kts 224°
2026-04-29 14:16 -25.11562 -49.72969 32203 ft 481 kts 224°
2026-04-29 14:17 -25.16980 -49.77294 32195 ft 481 kts 224°
2026-04-29 14:17 -25.22403 -49.81626 32218 ft 481 kts 224°
2026-04-29 14:18 -25.27832 -49.85953 32213 ft 482 kts 223°
2026-04-29 14:18 -25.33521 -49.89969 32198 ft 486 kts 220°
2026-04-29 14:19 -25.39288 -49.93889 32196 ft 486 kts 220°
2026-04-29 14:19 -25.45034 -49.97832 32200 ft 486 kts 221°
2026-04-29 14:20 -25.50770 -50.01797 32195 ft 486 kts 221°
2026-04-29 14:20 -25.56501 -50.05760 32192 ft 485 kts 221°
2026-04-29 14:21 -25.62346 -50.09573 32173 ft 489 kts 218°
2026-04-29 14:21 -25.68253 -50.13233 32171 ft 489 kts 218°
2026-04-29 14:22 -25.74175 -50.16954 32155 ft 489 kts 219°
2026-04-29 14:22 -25.80071 -50.20701 32159 ft 489 kts 219°
2026-04-29 14:23 -25.85970 -50.24459 32160 ft 489 kts 219°
2026-04-29 14:23 -25.91832 -50.28272 32155 ft 489 kts 220°
2026-04-29 14:24 -25.97690 -50.32114 32143 ft 489 kts 220°
2026-04-29 14:24 -26.03554 -50.35952 32143 ft 489 kts 220°
2026-04-29 14:25 -26.09421 -50.39794 32144 ft 490 kts 220°
2026-04-29 14:25 -26.15290 -50.43635 32136 ft 490 kts 220°
2026-04-29 14:26 -26.21171 -50.47488 32131 ft 490 kts 220°
2026-04-29 14:26 -26.27043 -50.51342 32132 ft 490 kts 220°
2026-04-29 14:27 -26.32926 -50.55209 32143 ft 491 kts 220°
2026-04-29 14:28 -26.41725 -50.61003 32132 ft 493 kts 220°
2026-04-29 14:28 -26.47637 -50.64898 32134 ft 494 kts 220°
2026-04-29 14:29 -26.53553 -50.68801 32124 ft 494 kts 220°
2026-04-29 14:29 -26.59474 -50.72718 32120 ft 495 kts 220°
2026-04-29 14:30 -26.65405 -50.76638 32118 ft 495 kts 220°
2026-04-29 14:30 -26.71326 -50.80563 32119 ft 495 kts 220°
2026-04-29 14:31 -26.77261 -50.84502 32120 ft 496 kts 220°
2026-04-29 14:31 -26.83210 -50.88454 32116 ft 498 kts 220°
2026-04-29 14:32 -26.89168 -50.92415 32100 ft 498 kts 220°
2026-04-29 14:32 -26.95122 -50.96378 32101 ft 498 kts 220°
2026-04-29 14:33 -27.01087 -51.00357 32071 ft 499 kts 220°
2026-04-29 14:33 -27.07063 -51.04350 32073 ft 501 kts 220°
2026-04-29 14:34 -27.13047 -51.08350 32079 ft 500 kts 220°
2026-04-29 14:34 -27.19033 -51.12358 32069 ft 501 kts 220°
2026-04-29 14:35 -27.25022 -51.16372 32067 ft 502 kts 220°
2026-04-29 14:35 -27.31018 -51.20396 32076 ft 502 kts 221°
2026-04-29 14:36 -27.37142 -51.24269 32091 ft 509 kts 217°
2026-04-29 14:36 -27.43482 -51.27876 32083 ft 512 kts 216°
2026-04-29 14:37 -27.49854 -51.31466 32085 ft 513 kts 216°
2026-04-29 14:37 -27.56236 -51.35099 32080 ft 514 kts 217°
2026-04-29 14:38 -27.62621 -51.38760 32056 ft 515 kts 217°
2026-04-29 14:38 -27.68979 -51.42429 32105 ft 516 kts 217°
2026-04-29 14:38 -27.72197 -51.44285 32232 ft 520 kts 217°
2026-04-29 14:39 -27.75417 -51.46140 32637 ft 519 kts 217°
2026-04-29 14:39 -27.78620 -51.47981 33131 ft 515 kts 217°
2026-04-29 14:39 -27.81803 -51.49812 33578 ft 513 kts 217°
2026-04-29 14:39 -27.84977 -51.51641 33957 ft 511 kts 217°
2026-04-29 14:40 -27.88152 -51.53478 34103 ft 515 kts 217°
2026-04-29 14:40 -27.94542 -51.57185 34082 ft 514 kts 217°
2026-04-29 14:41 -28.00873 -51.60840 34075 ft 509 kts 217°
2026-04-29 14:41 -28.07180 -51.64500 34078 ft 510 kts 218°
2026-04-29 14:42 -28.13500 -51.68173 34092 ft 511 kts 218°
2026-04-29 14:42 -28.19829 -51.71853 34086 ft 512 kts 218°
2026-04-29 14:43 -28.26126 -51.75518 34085 ft 513 kts 218°
2026-04-29 14:43 -28.32471 -51.79214 34088 ft 513 kts 218°
2026-04-29 14:44 -28.38813 -51.82916 34081 ft 513 kts 218°
2026-04-29 14:44 -28.45154 -51.86625 34079 ft 512 kts 218°
2026-04-29 14:45 -28.51487 -51.90330 34084 ft 512 kts 218°
2026-04-29 14:45 -28.57821 -51.94042 34079 ft 512 kts 218°
2026-04-29 14:46 -28.64151 -51.97757 34079 ft 511 kts 218°
2026-04-29 14:46 -28.70466 -52.01470 34087 ft 511 kts 218°
2026-04-29 14:47 -28.76777 -52.05184 34091 ft 510 kts 218°
2026-04-29 14:47 -28.83077 -52.08893 34093 ft 510 kts 218°
2026-04-29 14:48 -28.89446 -52.12479 34080 ft 511 kts 217°
2026-04-29 14:48 -28.95846 -52.15986 34077 ft 509 kts 217°
2026-04-29 14:49 -29.02204 -52.19494 34086 ft 507 kts 218°
2026-04-29 14:49 -29.08531 -52.23014 34091 ft 505 kts 218°
2026-04-29 14:50 -29.14849 -52.26540 34087 ft 505 kts 218°
2026-04-29 14:50 -29.21171 -52.30073 34086 ft 506 kts 219°
2026-04-29 14:51 -29.27501 -52.33616 34090 ft 506 kts 219°
2026-04-29 14:51 -29.33809 -52.37155 34088 ft 504 kts 219°
2026-04-29 14:52 -29.40098 -52.40673 34079 ft 502 kts 219°
2026-04-29 14:52 -29.46324 -52.44165 34082 ft 501 kts 219°
2026-04-29 14:53 -29.52571 -52.47686 34085 ft 500 kts 219°
2026-04-29 14:53 -29.58826 -52.51210 34075 ft 501 kts 219°
2026-04-29 14:54 -29.65081 -52.54742 34079 ft 501 kts 219°
2026-04-29 14:54 -29.71335 -52.58272 34079 ft 500 kts 219°
2026-04-29 14:55 -29.77583 -52.61801 34075 ft 500 kts 219°
2026-04-29 14:55 -29.82775 -52.64740 34086 ft 500 kts 219°
2026-04-29 14:56 -29.89017 -52.68279 34085 ft 500 kts 219°
2026-04-29 14:56 -29.95266 -52.71830 34078 ft 501 kts 219°
2026-04-29 14:57 -30.01506 -52.75376 34087 ft 500 kts 219°
2026-04-29 14:57 -30.07747 -52.78933 34093 ft 500 kts 217°
2026-04-29 14:58 -30.13973 -52.82482 34080 ft 499 kts 217°
2026-04-29 14:58 -30.20181 -52.86028 34067 ft 497 kts 217°
2026-04-29 14:59 -30.26366 -52.89572 34071 ft 495 kts 217°
2026-04-29 14:59 -30.32483 -52.93176 34078 ft 493 kts 217°
2026-04-29 15:00 -30.38585 -52.96798 34077 ft 492 kts 216°
2026-04-29 15:00 -30.44685 -53.00409 34069 ft 492 kts 216°
2026-04-29 15:01 -30.50781 -53.04016 34083 ft 492 kts 216°
2026-04-29 15:01 -30.56870 -53.07618 34070 ft 492 kts 215°
2026-04-29 15:02 -30.62984 -53.11197 34065 ft 492 kts 212°
2026-04-29 15:02 -30.69050 -53.14665 34064 ft 474 kts 213°
2026-04-29 15:03 -30.74793 -53.18180 34074 ft 466 kts 213°
2026-04-29 15:03 -30.80587 -53.21701 34066 ft 474 kts 212°
2026-04-29 15:04 -30.86450 -53.25198 34080 ft 471 kts 212°
2026-04-29 15:04 -30.92263 -53.28646 34065 ft 467 kts 212°
2026-04-29 15:05 -30.98049 -53.32123 34065 ft 469 kts 212°
2026-04-29 15:05 -31.03824 -53.35580 34066 ft 468 kts 211°
2026-04-29 15:06 -31.09674 -53.39101 34068 ft 472 kts 211°
2026-04-29 15:06 -31.15498 -53.42590 34066 ft 466 kts 211°
2026-04-29 15:07 -31.21231 -53.46065 34066 ft 468 kts 211°
2026-04-29 15:07 -31.27050 -53.49607 34060 ft 467 kts 211°
2026-04-29 15:08 -31.32777 -53.53068 34050 ft 466 kts 211°
2026-04-29 15:08 -31.38535 -53.56525 34051 ft 464 kts 211°
2026-04-29 15:09 -31.44243 -53.59991 34062 ft 461 kts 211°
2026-04-29 15:09 -31.49943 -53.63464 34062 ft 463 kts 211°
2026-04-29 15:10 -31.55674 -53.66934 34063 ft 464 kts 211°
2026-04-29 15:10 -31.61426 -53.70427 34059 ft 466 kts 210°
2026-04-29 15:11 -31.67188 -53.73941 34050 ft 467 kts 211°
2026-04-29 15:11 -31.72950 -53.77459 34048 ft 467 kts 210°
2026-04-29 15:12 -31.78710 -53.80981 34045 ft 466 kts 210°
2026-04-29 15:12 -31.84454 -53.84494 34046 ft 465 kts 210°
2026-04-29 15:13 -31.90180 -53.88004 34028 ft 463 kts 210°
2026-04-29 15:13 -31.95880 -53.91524 34047 ft 461 kts 212°
2026-04-29 15:14 -32.01234 -53.95630 34029 ft 458 kts 217°
2026-04-29 15:14 -32.06493 -53.99887 34028 ft 459 kts 217°
2026-04-29 15:15 -32.11766 -54.04120 34024 ft 459 kts 217°
2026-04-29 15:15 -32.17049 -54.08350 34027 ft 459 kts 217°
2026-04-29 15:16 -32.22335 -54.12583 34030 ft 459 kts 217°
2026-04-29 15:16 -32.27623 -54.16830 34017 ft 460 kts 217°
2026-04-29 15:17 -32.32909 -54.21078 34020 ft 460 kts 217°
2026-04-29 15:17 -32.38339 -54.25120 34018 ft 462 kts 214°
2026-04-29 15:18 -32.43881 -54.28974 34019 ft 462 kts 213°
2026-04-29 15:18 -32.49426 -54.32828 34025 ft 462 kts 214°
2026-04-29 15:19 -32.54954 -54.36704 34014 ft 462 kts 214°
2026-04-29 15:19 -32.60477 -54.40596 34017 ft 462 kts 214°
2026-04-29 15:20 -32.65956 -54.44467 34018 ft 462 kts 214°
2026-04-29 15:20 -32.71471 -54.48368 34016 ft 462 kts 214°
2026-04-29 15:21 -32.76990 -54.52277 34023 ft 461 kts 215°
2026-04-29 15:21 -32.82506 -54.56187 34018 ft 462 kts 215°
2026-04-29 15:22 -32.88020 -54.60105 34015 ft 462 kts 215°
2026-04-29 15:22 -32.93536 -54.64028 34017 ft 462 kts 215°
2026-04-29 15:23 -32.99054 -54.67957 34017 ft 462 kts 216°
2026-04-29 15:23 -33.04571 -54.71892 34021 ft 462 kts 216°
2026-04-29 15:24 -33.10086 -54.75835 34021 ft 462 kts 216°
2026-04-29 15:24 -33.15602 -54.79783 34015 ft 463 kts 216°
2026-04-29 15:25 -33.21124 -54.83740 34019 ft 463 kts 216°
2026-04-29 15:25 -33.26627 -54.87686 34020 ft 463 kts 216°
2026-04-29 15:26 -33.32150 -54.91655 34000 ft 463 kts 216°
2026-04-29 15:26 -33.37676 -54.95632 33991 ft 464 kts 216°
2026-04-29 15:27 -33.43167 -54.99592 33981 ft 464 kts 216°
2026-04-29 15:27 -33.48696 -55.03583 33980 ft 464 kts 216°
2026-04-29 15:28 -33.54230 -55.07578 33983 ft 465 kts 216°
2026-04-29 15:28 -33.59774 -55.11588 33592 ft 471 kts 217°
2026-04-29 15:28 -33.62607 -55.13644 32741 ft 478 kts 217°
2026-04-29 15:29 -33.65456 -55.15710 31880 ft 478 kts 217°
2026-04-29 15:29 -33.71152 -55.19840 30221 ft 476 kts 217°
2026-04-29 15:30 -33.76775 -55.23917 28933 ft 468 kts 217°
2026-04-29 15:30 -33.79550 -55.25934 28305 ft 464 kts 217°
2026-04-29 15:30 -33.82301 -55.27937 27678 ft 460 kts 217°
2026-04-29 15:30 -33.85030 -55.29926 27061 ft 457 kts 217°
2026-04-29 15:31 -33.87737 -55.31900 26442 ft 453 kts 217°
2026-04-29 15:31 -33.90424 -55.33861 25841 ft 450 kts 217°
2026-04-29 15:31 -33.93095 -55.35811 25229 ft 447 kts 217°
2026-04-29 15:31 -33.95744 -55.37747 24616 ft 444 kts 217°
2026-04-29 15:32 -33.98373 -55.39670 24018 ft 441 kts 217°
2026-04-29 15:32 -34.00985 -55.41582 23417 ft 438 kts 217°
2026-04-29 15:32 -34.03576 -55.43479 22836 ft 434 kts 217°
2026-04-29 15:32 -34.06145 -55.45363 22248 ft 431 kts 218°
2026-04-29 15:33 -34.08699 -55.47237 21671 ft 427 kts 217°
2026-04-29 15:33 -34.11228 -55.49092 21098 ft 424 kts 217°
2026-04-29 15:33 -34.13735 -55.50935 20532 ft 420 kts 217°
2026-04-29 15:33 -34.16223 -55.52764 19982 ft 417 kts 217°
2026-04-29 15:34 -34.18686 -55.54579 19416 ft 413 kts 217°
2026-04-29 15:34 -34.21129 -55.56380 18863 ft 410 kts 217°
2026-04-29 15:34 -34.23553 -55.58165 18308 ft 407 kts 217°
2026-04-29 15:34 -34.25958 -55.59938 17754 ft 403 kts 216°
2026-04-29 15:35 -34.28346 -55.61698 17206 ft 401 kts 216°
2026-04-29 15:35 -34.30718 -55.63447 16658 ft 398 kts 216°
2026-04-29 15:35 -34.33058 -55.65210 16116 ft 394 kts 219°
2026-04-29 15:35 -34.35230 -55.67182 15603 ft 387 kts 224°
2026-04-29 15:36 -34.37171 -55.69391 15068 ft 381 kts 229°
2026-04-29 15:36 -34.39055 -55.71640 14582 ft 377 kts 228°
2026-04-29 15:36 -34.40906 -55.73828 14051 ft 375 kts 227°
2026-04-29 15:36 -34.42773 -55.76024 13525 ft 373 kts 227°
2026-04-29 15:37 -34.44627 -55.78198 13112 ft 368 kts 227°
2026-04-29 15:37 -34.46447 -55.80330 12711 ft 361 kts 227°
2026-04-29 15:37 -34.48241 -55.82436 12142 ft 359 kts 227°
2026-04-29 15:37 -34.50042 -55.84557 11447 ft 360 kts 227°
2026-04-29 15:38 -34.51827 -55.86659 10977 ft 355 kts 227°
2026-04-29 15:38 -34.53561 -55.88698 10891 ft 340 kts 227°
2026-04-29 15:38 -34.55220 -55.90650 10793 ft 326 kts 228°
2026-04-29 15:38 -34.56813 -55.92523 10694 ft 312 kts 228°
2026-04-29 15:39 -34.58337 -55.94318 10596 ft 299 kts 229°
2026-04-29 15:39 -34.59794 -55.96035 10503 ft 285 kts 229°
2026-04-29 15:39 -34.61184 -55.97675 10396 ft 272 kts 229°
2026-04-29 15:39 -34.62523 -55.99260 10106 ft 267 kts 229°
2026-04-29 15:40 -34.63836 -56.00815 9825 ft 262 kts 230°
2026-04-29 15:40 -34.65134 -56.02356 9459 ft 259 kts 230°
2026-04-29 15:40 -34.66415 -56.03873 9117 ft 255 kts 230°
2026-04-29 15:40 -34.67681 -56.05370 8779 ft 252 kts 230°
2026-04-29 15:41 -34.68930 -56.06849 8436 ft 249 kts 231°
2026-04-29 15:41 -34.70158 -56.08304 8096 ft 246 kts 231°
2026-04-29 15:41 -34.71373 -56.09746 7766 ft 241 kts 231°
2026-04-29 15:41 -34.72561 -56.11151 7486 ft 236 kts 231°
2026-04-29 15:42 -34.73750 -56.12566 7223 ft 242 kts 231°
2026-04-29 15:42 -34.74555 -56.13525 7004 ft 246 kts 231°
2026-04-29 15:42 -34.75783 -56.14984 6667 ft 246 kts 231°
2026-04-29 15:42 -34.76997 -56.16427 6342 ft 242 kts 231°
2026-04-29 15:43 -34.78201 -56.17860 6026 ft 242 kts 232°
2026-04-29 15:43 -34.79409 -56.19297 5700 ft 243 kts 232°
2026-04-29 15:43 -34.80613 -56.20731 5380 ft 243 kts 232°
2026-04-29 15:43 -34.81824 -56.22172 5071 ft 244 kts 231°
2026-04-29 15:44 -34.83042 -56.23617 4765 ft 245 kts 231°
2026-04-29 15:44 -34.84279 -56.25039 4421 ft 245 kts 224°
2026-04-29 15:44 -34.85865 -56.25856 4084 ft 256 kts 192°
2026-04-29 15:44 -34.87631 -56.25607 3855 ft 259 kts 165°
2026-04-29 15:45 -34.89155 -56.24504 3635 ft 252 kts 146°
2026-04-29 15:45 -34.90534 -56.23242 3429 ft 242 kts 147°
2026-04-29 15:45 -34.91855 -56.22042 3367 ft 231 kts 143°
2026-04-29 15:45 -34.92813 -56.20526 3101 ft 223 kts 104°
2026-04-29 15:46 -34.92900 -56.18781 2959 ft 202 kts 71°
2026-04-29 15:46 -34.92438 -56.17221 2725 ft 188 kts 51°
2026-04-29 15:46 -34.91699 -56.15930 2506 ft 187 kts 46°
2026-04-29 15:46 -34.90915 -56.14654 2254 ft 188 kts 46°
2026-04-29 15:47 -34.90150 -56.13408 2004 ft 177 kts 46°
2026-04-29 15:47 -34.89444 -56.12248 1777 ft 165 kts 47°
2026-04-29 15:47 -34.88765 -56.11145 1742 ft 162 kts 47°
2026-04-29 15:47 -34.88083 -56.10034 1743 ft 165 kts 46°
2026-04-29 15:48 -34.87401 -56.08916 1708 ft 163 kts 47°
2026-04-29 15:48 -34.86714 -56.07807 1509 ft 171 kts 47°
2026-04-29 15:48 -34.85984 -56.06607 834 ft 177 kts 50°
2026-04-29 15:48 -34.85285 -56.05442 433 ft 163 kts 49°
2026-04-29 15:49 -34.84649 -56.04404 196 ft 147 kts 49°
2026-04-29 15:49 -34.84006 -56.03361 85 ft 157 kts 51°
2026-04-29 15:49 -34.83423 -56.02403 90 ft 117 kts 54°
2026-04-29 15:49 -34.83043 -56.01789 105 ft 64 kts 53°
2026-04-29 15:50 -34.82848 -56.01460 114 ft 30 kts 54°
2026-04-29 15:50 -34.82807 -56.01310 115 ft 16 kts 116°
2026-04-29 15:50 -34.82893 -56.01234 120 ft 16 kts 172°
2026-04-29 15:50 -34.82965 -56.01305 114 ft 14 kts 237°
2026-04-29 15:51 -34.83027 -56.01409 113 ft 17 kts 233°
2026-04-29 15:51 -34.83104 -56.01535 110 ft 21 kts 233°
2026-04-29 15:51 -34.83196 -56.01688 106 ft 24 kts 233°
2026-04-29 15:51 -34.83272 -56.01810 103 ft 11 kts 233°
2026-04-29 15:52 -34.83337 -56.01863 101 ft 13 kts 164°
2026-04-29 15:52 -34.83414 -56.01791 102 ft 15 kts 143°
2026-04-29 15:52 -34.83513 -56.01791 99 ft 17 kts 227°
2026-04-29 15:52 -34.83592 -56.01921 96 ft 21 kts 236°
2026-04-29 15:53 -34.83683 -56.02075 92 ft 24 kts 233°
2026-04-29 15:53 -34.83788 -56.02225 88 ft 20 kts 208°
2026-04-29 15:53 -34.83911 -56.02248 85 ft 15 kts 192°
2026-04-29 15:53 -34.83946 -56.02355 84 ft 15 kts 291°
2026-04-29 15:54 -34.83881 -56.02384 88 ft 6 kts
2026-04-29 15:54 -34.83869 -56.02383 84 ft 0 kts